SL-8 R/B

Satellite information

Favourite Embed

Satellite Type and Status

ROCKET BODYIN ORBIT

Key statistics

Satellite SL-8 R/B at a glance.

Uptime

12672

Days in orbit

Revolutions

≈ 14.8

Per day

Orbit

LEO

Low Earth Orbit

Inclination

82.9

Latest

Satellite identification and parameters

Extended collection of information and parameters for SL-8 R/B.

Object identification

Identified? True

Debris? False

Object name: SL-8 R/B

International designator: 1990-078B

Object number (NORAD): 20775

Object ID (CCSDS): 20775

Country: COMMONWEALTH OF INDEPENDENT STATES (CIS)

Current information (Y/N): Y

RCS size: LARGE

Orbital parameters

Period: 97.459 minutes

Inclination: 82.9086 deg

SMA: 7015.204 km

Apoapsis: 920.324 km

Periapsis: 353.814 km

RAAN: 163.6603 deg

Eccentricy: 0.0403773

Argument of periapsis: 313.611 deg

Mean anomaly: 43.2243 deg

Mean motion: 14.77550373 rev/day

Mean motion (dot): 0.00012474 rev/day2

B* drag term: 0.00042198 1/REarth

Two-line elements (TLE)

Creation date: May 8, 2025, 3:01 a.m.

Reference frame: TEME

Reference center: EARTH

Epoch: May 7, 2025, 7:19 p.m. UTC

TLE line 0: 0 SL-8 R/B

TLE line 1: 1 20775U 90078B 25127.80518508 .00012474 00000-0 42198-3 0 9992

TLE line 2: 2 20775 82.9086 163.6603 0403773 313.6110 43.2243 14.77550373763972

Live tracking on map

Real-time ground track for satellite SL-8 R/B.

In-orbit conjunctions

A list of the most updated potential collisions computed for object SL-8 R/B.

Target Orbit TCA Probability of collision Miss distance Type
CZ-4 DEB SSO 2025-02-21 14:58:04 0.0001313204 480.0 (m) DEBRIS
THOR AGENA D R/B SSO 2024-08-22 20:38:15 0.0001958788 141.0 (m) ROCKET BODY
DELTA 1 DEB SSO 2024-08-16 02:30:58 0.0001610469 271.0 (m) DEBRIS

Associated space launch

Early warning satellite

SL-8 R/B was lifted into orbit during the mission ‘Molniya 8K78M-PVB | US-K 66’, on board a Molniya 8K78M-PVB space rocket.

The launch took place on Aug. 28, 1990, 7:49 a.m. from 43/4 (43R).

For more information about the launch, click the button.

Launch to space Molniya 8K78M-PVB | US-K 66
Molniya 8K78M-PVB | US-K 66

Agency: N/A

Status: Launch Successful

Launch date: Aug. 28, 1990, 7:49 a.m. UTC

Rocket: Molniya 8K78M-PVB

Launch pad: 43/4 (43R)

Location: Plesetsk Cosmodrome, Russian Federation

...

Latest news about this satellite

There are no fresh news available about this satellite. Check back as we update our databases every day.


Newsletter sign-up

Weekly statistics, charts and insights to help you stay on top of the space industry.